Waarnemingen

Advertentie
Mijn weer
Storlien-Visjovalen A, Zweden (2207): temperatuur & dauwpunt: 15.05.2018 18:00:00 - 21.05.2018 18:00:00 (CEST)Storlien-Visjovalen A, Zweden (2207): windsnelheid & windstoten: 15.05.2018 18:00:00 - 21.05.2018 18:00:00 (CEST)Storlien-Visjovalen A, Zweden (2207): windrichting: 15.05.2018 18:00:00 - 21.05.2018 18:00:00 (CEST)Storlien-Visjovalen A, Zweden (2207): luchtdruk: 15.05.2018 18:00:00 - 21.05.2018 18:00:00 (CEST)Storlien-Visjovalen A, Zweden (2207): zicht: 15.05.2018 18:00:00 - 21.05.2018 18:00:00 (CEST)Storlien-Visjovalen A, Zweden (2207): neerslag: 15.05.2018 18:00:00 - 21.05.2018 18:00:00 (CEST)
Datum & Tijd tt [°C] td [°C] ff [km/u] ff [kn] fx [km/u] fx [kn] dd ppp [hPa] vv [km] rr [mm]
21.05.2018 18:00:00 22,1 -6,7 5 3 26 14 WZW 1018,2 49 0,0
21.05.2018 17:00:00 22,9 -2,7 6 4 24 13 ZZW 1018,2 50 0,0
21.05.2018 16:00:00 21,4 -4,7 11 6 25 13 ZZO 1018,9 49 0,0
21.05.2018 15:00:00 22,2 -2,5 8 4 25 13 ZW 1019,0 43 0,0
21.05.2018 14:00:00 21,8 -2,2 10 5 22 12 ZW 1019,5 43 0,0
21.05.2018 13:00:00 20,3 -0,9 12 6 19 10 Z 1019,8 44 0,0
21.05.2018 12:00:00 19,9 -1,3 7 4 19 10 ZZW 1020,1 50 0,0
21.05.2018 11:00:00 19,1 -0,3 6 3 21 11 ZZO 1020,4 50 0,0
21.05.2018 10:00:00 17,5 -0,7 5 3 22 12 ZW 1021,1 50 0,0
21.05.2018 09:00:00 16,1 0,6 11 6 22 12 Z 1021,4 50 0,0
21.05.2018 08:00:00 14,6 0,4 13 7 27 15 Z 1021,4 50 0,0
21.05.2018 07:00:00 13,2 0,2 14 8 30 16 Z 1021,3 50 0,0
21.05.2018 06:00:00 11,1 -0,1 13 7 30 16 ZZW 1021,5 50 0,0
21.05.2018 05:00:00 11,7 -1,1 11 6 30 16 ZW 1020,7 50 0,0
21.05.2018 04:00:00 11,4 -1,4 15 8 27 15 ZZW 1020,3 50 0,0
21.05.2018 03:00:00 10,6 -1,2 11 6 29 15 ZW 1020,6 50 0,0
21.05.2018 02:00:00 11,4 -0,4 13 7 29 15 ZW 1020,2 50 0,0
21.05.2018 01:00:00 11,8 -1,0 14 8 26 14 ZZW 1020,0 50 0,0
21.05.2018 00:00:00 11,9 -1,3 13 7 26 14 Z 1020,1 50 0,0
20.05.2018 23:00:00 12,3 -2,7 12 7 22 12 ZZW 1019,7 50 0,0
20.05.2018 22:00:00 12,4 -1,9 10 6 19 10 Z 1019,7 50 0,0
20.05.2018 21:00:00 14,9 -2,1 8 5 24 13 ZZO 1018,8 50 0,0
20.05.2018 20:00:00 16,4 -3,2 9 5 27 14 WZW 1018,0 50 0,0
20.05.2018 19:00:00 17,6 -4,4 12 6 34 18 W 1017,7 50 0,0
20.05.2018 18:00:00 18,3 -5,7 13 7 38 20 W 1017,6 50 0,0
20.05.2018 17:00:00 20,5 -5,4 12 6 38 20 WZW 1016,7 50 0,0
20.05.2018 16:00:00 19,3 -6,4 13 7 35 19 WZW 1017,0 50 0,0
20.05.2018 15:00:00 20,1 -6,5 16 9 35 19 ZW 1016,9 44 0,0
20.05.2018 14:00:00 20,1 -5,0 15 8 34 18 ZW 1016,6 50 0,0
20.05.2018 13:00:00 20,6 -4,6 13 7 35 19 ZZW 1016,4 46 0,0
20.05.2018 12:00:00 19,7 -3,9 13 7 37 20 ZZW 1016,7 45 0,0
20.05.2018 11:00:00 17,4 -1,3 16 9 37 20 Z 1017,4 50 0,0
20.05.2018 10:00:00 15,6 -1,0 12 6 32 18 ZZW 1018,1 50 0,0
20.05.2018 09:00:00 13,9 0,2 17 9 32 18 ZZW 1018,7 50 0,0
20.05.2018 08:00:00 12,6 1,0 15 8 31 17 ZZW 1018,9 50 0,0
20.05.2018 07:00:00 5,9 2,4 9 5 13 7 O 1020,8 50 0,0
20.05.2018 06:00:00 2,3 0,8 5 3 9 5 OZO 1022,1 50 0,0
20.05.2018 05:00:00 -0,9 -1,7 4 2 7 4 ZO 1023,0 50 0,0
20.05.2018 04:00:00 -2,2 -3,0 3 1 6 4 NW 1023,6 50 0,0
20.05.2018 03:00:00 -1,5 -2,6 2 1 6 3 OZO 1024,1 50 0,0
20.05.2018 02:00:00 -0,1 -1,2 2 1 5 3 OZO 1023,9 50 0,0
20.05.2018 01:00:00 0,6 -1,2 0 0 5 3 N 1024,1 50 0,0
20.05.2018 00:00:00 2,2 0,3 3 1 5 3 WNW 1024,1 50 0,0
19.05.2018 23:00:00 4,1 0,8 3 1 5 3 ZO 1023,6 50 0,0
19.05.2018 22:00:00 6,9 1,4 4 2 12 6 W 1022,7 50 0,0
19.05.2018 21:00:00 11,9 1,5 3 2 21 11 NNW 1021,0 50 0,0
19.05.2018 20:00:00 12,9 1,6 7 4 26 14 NNW 1020,8 45 0,0
19.05.2018 19:00:00 13,3 1,0 13 7 30 16 NW 1020,9 50 0,0
19.05.2018 18:00:00 14,1 1,0 16 9 30 16 NW 1020,6 50 0,0
19.05.2018 17:00:00 14,9 -0,4 15 8 29 15 NW 1020,1 50 0,0
19.05.2018 16:00:00 14,9 -1,7 11 6 31 17 NNW 1019,9 47 0,0
19.05.2018 15:00:00 15,6 -2,4 16 8 31 17 WNW 1019,7 45 0,0
19.05.2018 14:00:00 14,4 -3,4 11 6 30 16 WNW 1020,1 49 0,0
19.05.2018 13:00:00 13,9 -3,4 16 8 29 16 W 1020,4 43 0,0
19.05.2018 12:00:00 13,8 -3,0 12 7 24 13 W 1020,6 48 0,0
19.05.2018 11:00:00 12,8 -3,9 13 7 24 13 W 1021,0 49 0,0
19.05.2018 10:00:00 11,8 -2,8 8 4 19 11 WZW 1021,3 50 0,0
19.05.2018 09:00:00 10,1 -0,4 9 5 22 12 W 1021,8 50 0,0
19.05.2018 08:00:00 9,4 -0,2 8 4 22 12 W 1021,9 50 0,0
19.05.2018 07:00:00 8,4 0,6 9 5 18 10 W 1021,7 50 0,0
19.05.2018 06:00:00 5,5 0,5 5 3 8 4 OZO 1022,2 50 0,0
19.05.2018 05:00:00 2,3 -1,0 2 1 15 8 N 1023,1 50 0,0
19.05.2018 04:00:00 2,5 -1,8 6 3 19 10 ZW 1022,8 50 0,0
19.05.2018 03:00:00 4,2 -1,0 9 5 19 10 ZW 1022,3 50 0,0
19.05.2018 02:00:00 4,0 -1,2 6 3 17 9 ZW 1022,2 50 0,0
19.05.2018 01:00:00 0,3 -1,5 2 1 7 4 ZW 1023,2 45 0,0
19.05.2018 00:00:00 0,0 -1,7 4 2 5 3 WNW 1023,4 50 0,0
18.05.2018 23:00:00 1,5 -1,6 2 1 5 3 W 1023,3 50 0,0
18.05.2018 22:00:00 4,8 -0,2 3 1 8 5 W 1022,2 50 0,0
18.05.2018 21:00:00 9,7 -0,2 0 0 9 5 N 1020,6 50 0,0
18.05.2018 20:00:00 11,0 -0,2 3 2 10 6 NNO 1020,2 47 0,0
18.05.2018 19:00:00 11,4 -1,1 4 2 12 7 N 1020,3 50 0,0
18.05.2018 18:00:00 10,6 -0,8 6 3 16 8 Z 1021,0 50 0,0
18.05.2018 17:00:00 11,2 -0,6 6 3 16 8 W 1021,1 50 0,0
18.05.2018 16:00:00 11,2 -0,6 6 3 - - N 1021,6 43 -
18.05.2018 15:00:00 7,9 -0,3 5 3 23 12 N 1022,8 50 0,0
18.05.2018 14:00:00 9,1 2,2 8 4 23 12 N 1022,7 43 0,0
18.05.2018 13:00:00 7,4 2,3 5 3 25 13 N 1023,4 29 0,0
18.05.2018 12:00:00 5,0 2,9 10 6 25 13 NW 1024,4 15 0,0
18.05.2018 11:00:00 6,4 1,3 10 5 24 13 NW 1023,8 50 0,0
18.05.2018 10:00:00 5,5 1,6 10 5 29 15 NW 1024,2 31 0,0
18.05.2018 09:00:00 4,5 2,2 10 6 29 15 NNW 1024,4 38 0,0
18.05.2018 08:00:00 4,6 1,6 11 6 31 17 W 1024,1 41 0,0
18.05.2018 07:00:00 3,4 1,0 20 11 31 17 W 1024,2 29 0,0
18.05.2018 06:00:00 3,2 1,4 11 6 19 11 W 1024,4 26 0,1
18.05.2018 05:00:00 3,2 1,1 10 6 20 11 W 1024,5 17 0,0
18.05.2018 04:00:00 2,9 1,3 9 5 21 11 W 1024,3 19 0,0
18.05.2018 03:00:00 2,8 1,0 8 4 21 11 W 1024,3 36 0,0
18.05.2018 02:00:00 3,0 1,5 8 5 21 12 W 1024,3 10 0,0
18.05.2018 01:00:00 3,4 1,1 9 5 21 12 WZW 1024,2 16 0,2
18.05.2018 00:00:00 3,8 -0,2 6 4 21 11 W 1024,5 50 0,0
17.05.2018 23:00:00 3,7 -1,5 11 6 26 14 W 1024,5 50 0,0
17.05.2018 22:00:00 4,0 -2,6 13 7 33 18 W 1024,2 50 0,0
17.05.2018 21:00:00 5,2 -3,9 16 9 34 18 W 1023,7 50 0,0
17.05.2018 20:00:00 6,9 -2,8 17 9 34 18 WNW 1023,0 49 0,0
17.05.2018 19:00:00 8,8 -3,1 16 9 29 16 WNW 1022,2 50 0,0
17.05.2018 18:00:00 9,3 -3,6 16 8 29 16 WNW 1021,8 50 0,0
17.05.2018 17:00:00 9,9 -4,1 13 7 28 15 NW 1021,5 47 0,0
17.05.2018 16:00:00 10,7 -3,4 11 6 29 15 NW 1021,2 39 0,0
17.05.2018 15:00:00 9,7 -2,9 16 9 29 15 NW 1021,6 36 0,0
17.05.2018 14:00:00 9,7 -3,9 13 7 23 12 WNW 1021,7 43 0,0
17.05.2018 13:00:00 8,8 -5,5 10 5 20 11 W 1022,1 42 0,0
17.05.2018 12:00:00 7,8 -5,3 8 5 20 11 NNW 1022,8 43 0,0
17.05.2018 11:00:00 6,7 -4,4 6 3 16 8 N 1023,4 38 0,0
17.05.2018 10:00:00 5,5 -3,8 5 3 14 8 NNO 1024,0 41 0,0
17.05.2018 09:00:00 5,0 -2,6 3 1 13 7 O 1024,9 43 0,0
17.05.2018 08:00:00 2,7 -2,8 7 4 12 6 NW 1026,0 43 0,0
17.05.2018 07:00:00 1,7 -2,8 3 2 9 5 NNO 1026,4 36 0,0
17.05.2018 06:00:00 1,4 -2,0 4 2 9 5 NNO 1026,8 41 0,0
17.05.2018 05:00:00 0,9 -0,6 3 1 7 4 NW 1026,9 36 0,0
17.05.2018 04:00:00 0,6 -0,7 0 0 5 3 N 1026,8 40 0,0
17.05.2018 03:00:00 0,1 -1,5 2 1 5 3 WZW 1026,9 43 0,0
17.05.2018 02:00:00 -0,1 -1,5 3 2 5 3 ZW 1027,4 43 0,0
17.05.2018 01:00:00 -0,5 -2,1 0 0 6 3 N 1027,6 35 0,0
17.05.2018 00:00:00 0,5 -1,7 0 0 13 7 N 1027,6 41 0,0
16.05.2018 23:00:00 0,7 -2,0 3 2 21 12 OZO 1027,6 43 0,0
16.05.2018 22:00:00 3,1 -1,5 8 4 24 13 NW 1027,1 44 0,0
16.05.2018 21:00:00 4,5 0,1 8 4 25 13 NW 1026,5 35 0,0
16.05.2018 20:00:00 5,1 1,0 14 8 29 16 NW 1025,9 30 0,0
16.05.2018 19:00:00 4,8 1,1 14 7 29 16 NW 1026,2 41 0,0
16.05.2018 18:00:00 4,6 2,1 13 7 37 20 WNW 1026,2 15 0,0
16.05.2018 17:00:00 4,8 2,2 12 6 55 30 WNW 1026,1 48 0,0
16.05.2018 16:00:00 4,8 2,3 22 12 55 30 WNW 1025,4 25 0,0
16.05.2018 15:00:00 5,3 2,0 26 14 50 27 WNW 1024,2 50 0,0
16.05.2018 14:00:00 5,0 3,0 30 16 50 27 NW 1024,2 36 0,0
16.05.2018 13:00:00 5,7 4,3 25 14 50 27 NW 1023,2 12 0,0
16.05.2018 12:00:00 6,2 4,8 26 14 50 27 WNW 1022,4 7 0,0
16.05.2018 11:00:00 7,9 5,0 29 15 50 27 WNW 1020,7 50 0,0
16.05.2018 10:00:00 9,0 3,4 27 14 47 25 WNW 1019,3 50 0,0
16.05.2018 09:00:00 10,5 3,8 25 13 46 25 NW 1017,7 50 0,0
16.05.2018 08:00:00 11,8 6,7 17 9 32 17 WNW 1016,4 50 0,0
16.05.2018 07:00:00 - - - - 16 9 - - - -
16.05.2018 06:00:00 - - - - 13 7 - - - -
16.05.2018 05:00:00 - - - - 10 5 - - - -
16.05.2018 04:00:00 - - - - 10 5 - - - -
16.05.2018 03:00:00 5,8 3,0 6 3 9 5 O 1017,1 50 0,0
16.05.2018 02:00:00 5,0 3,2 3 1 8 4 NW 1017,8 50 0,0
16.05.2018 01:00:00 6,9 4,9 3 2 6 3 ONO 1017,5 50 0,0
16.05.2018 00:00:00 7,6 4,4 3 1 4 2 WZW 1017,7 50 0,0
15.05.2018 23:00:00 9,7 4,9 3 2 8 4 W 1017,6 50 0,0
15.05.2018 22:00:00 14,1 5,2 4 2 15 8 ZW 1016,7 50 0,0
15.05.2018 21:00:00 18,3 5,5 4 2 15 8 NW 1015,6 50 0,0
15.05.2018 20:00:00 21,2 4,7 4 2 13 7 NNO 1015,0 50 0,0
15.05.2018 19:00:00 21,7 0,8 6 3 15 8 Z 1015,0 50 0,0
15.05.2018 18:00:00 24,0 1,0 5 3 18 10 WZW 1015,0 24 0,0

tt = temperatuur
td = dauwpunt
ff = windsnelheid
fx = windstoten
dd = windrichting
ppp = luchtdruk
vv = zicht
rr = neerslag

Weerstations in de omgeving